Location: Hilina Pali Trail
(19.2864°N, 155.2806°W)
Time: 19:22:15
(UTC+00:00)

Daily predictions for brighter satellites

Satellite Brightness Start Highest point End
(mag) Time Altitude Azimuth Time Altitude Azimuth Time Altitude Azimuth
Okean O Rocket 4.4 13:33:45 10° NE 13:34:36 14° NE 13:34:36 14° NE
CZ-3 Stage 3 4.5 12:55:30 10° WNW 13:38:13 82° NNE 13:43:11 10° ESE
Skynet4D Del rocket 4.2 13:56:42 53° NE 13:56:42 53° NE 14:00:52 10° ENE
Atlas Centaur 2 3.3 13:57:16 33° NNE 13:57:16 33° NNE 14:00:36 10° NE
ATLAS 3B R/B 3.6 13:52:08 27° S 13:55:59 48° ESE 14:02:59 10° NE
Mugunghwa Rocket 4.4 13:59:33 57° SSE 13:59:33 57° SSE 14:05:42 10° ESE
ASTRO E2 3.6 14:21:50 46° E 14:21:50 46° E 14:24:53 10° ENE
PAYLOAD B 4.0 14:20:19 10° N 14:25:48 77° WNW 14:27:00 55° SSW
Intercosmos 25 Rocket 4.2 14:22:44 10° S 14:29:54 79° E 14:34:15 10° N
Cosmos 2263 Rocket 3.2 14:32:06 29° NW 14:32:06 29° NW 14:35:34 10° N
GPS 2-12 Rocket1 2.8 14:34:42 79° WSW 14:34:54 83° S 14:39:27 10° E
GPS 2-14 Rocket1 2.5 14:39:49 80° NNE 14:39:49 80° NNE 14:43:29 10° E
GPS 2-18 Rocket1 3.0 14:40:58 70° SSE 14:40:58 70° SSE 14:44:23 10° ESE
IRS-1C Rocket 4.0 14:37:11 10° N 14:42:25 67° WNW 14:45:56 21° SSW
ADEOS II 4.0 14:40:02 10° NNW 14:41:07 14° NNW 14:41:07 14° NNW
Meteor PRIRODA 3.5 14:42:59 10° N 14:46:39 68° WNW 14:46:41 67° W
Cosmos 1536 Rocket 3.7 14:45:32 10° S 14:49:49 74° E 14:54:07 10° N
ATLAS CENTAUR R/B 4.4 14:48:01 10° SE 14:50:07 14° ESE 14:52:08 10° E
Meteor 1-19 Rocket 4.3 14:45:36 10° S 14:51:29 87° E 14:57:21 10° N
Meteor 2-4 Rocket 4.1 14:52:34 10° S 14:57:55 65° E 15:03:25 10° NNE
Cosmos 1975 2.7 14:55:18 10° N 14:59:23 82° W 15:03:28 10° S
USA 238 DEB 3.7 14:54:50 15° SW 15:00:39 64° WNW 15:07:32 10° NNE
USA 238 3.7 14:54:52 15° SW 15:00:45 65° WNW 15:07:40 10° NNE
BREEZE-M DEB (TANK) 3.6 14:54:07 10° NW 15:02:26 50° NNE 15:05:21 10° ESE
Cosmos 1500 3.7 15:02:06 10° NNW 15:05:33 34° W 15:08:59 10° SSW
Cosmos 1553 Rocket 4.0 15:00:04 10° S 15:06:17 83° E 15:12:26 10° N
Meteor 1-4 Rocket 4.1 15:08:03 10° NNE 15:11:16 36° E 15:14:29 10° SSE
CZ-4B R/B 4.0 15:07:18 10° NNW 15:11:44 28° WNW 15:14:50 17° WSW
Okean O Rocket 3.5 15:10:54 10° NW 15:12:04 13° NW 15:12:04 13° NW
CZ-3C R/B 3.1 15:13:42 18° SW 15:16:12 33° S 15:28:37 10° ESE
Intelsat 5-2 Rocket 3.6 15:15:57 19° WNW 15:17:49 44° N 15:23:25 10° E
Palapa 6 Rocket 4.2 15:18:47 15° WNW 15:23:56 74° N 15:31:22 10° E
S3M 3.9 15:18:08 10° S 15:24:17 74° W 15:30:33 10° N
Meteor 1-31 Rocket 4.0 15:22:31 10° NNW 15:25:31 22° WNW 15:28:12 11° WSW
ISS -2.8 15:23:15 10° NNW 15:26:26 47° NE 15:29:36 10° SE
Landsat 4 4.1 15:26:30 10° S 15:30:07 42° W 15:33:44 10° NNW
USA 116 3.3 15:27:16 10° S 15:30:58 79° WSW 15:34:18 10° NNW
Cosmos 1025 Rocket 3.4 15:27:13 10° S 15:31:26 67° E 15:35:40 10° NNE
PAYLOAD A 4.3 15:26:52 10° NNE 15:31:37 67° ESE 15:36:15 10° S
COSMO-SKYMED 1 3.8 15:31:38 10° SSE 15:35:48 48° ENE 15:39:58 10° N
Cosmos 1515 4.4 15:32:26 10° S 15:36:10 59° E 15:39:55 10° NNE
OAO 3 Rocket 3.2 15:32:51 10° WNW 15:37:26 59° SW 15:42:04 10° SE
NOSS 3-2 (C) 3.4 15:32:02 10° SSW 15:37:48 86° ESE 15:43:53 10° NNE
Ariane H10+ 4.4 15:35:45 10° S 15:38:41 14° SSE 15:43:28 10° ESE
Cosmos 2278 Rocket 3.2 15:36:22 10° S 15:41:49 52° ESE 15:47:17 10° NNE
Meteor 1-23 Rocket 4.2 15:38:06 10° SSW 15:43:36 62° W 15:49:05 10° N
Atlas Centaur 2 3.5 15:41:22 10° NW 15:45:23 21° N 15:48:47 10° NE
ATLAS 3B R/B 3.9 15:40:51 10° WSW 15:46:44 25° WNW 15:52:30 10° N
Cosmos 1666 3.1 15:43:49 10° NNW 15:47:22 40° W 15:50:56 10° SSW
Skynet4D Del rocket 4.4 15:42:55 10° WNW 15:48:11 39° N 15:53:11 10° ENE
Cosmos 2084 3.9 15:46:39 10° NW 15:50:17 35° WSW 15:54:06 10° S
Cosmos 1743 3.7 15:47:00 10° NNW 15:50:18 27° W 15:53:37 10° SSW
IDEFIX/ARIANE 42P 2.6 15:45:16 10° N 15:50:33 85° WNW 15:55:48 10° SSW
ASC 2 Rocket 3.7 15:47:13 10° WNW 15:51:06 45° N 15:55:31 10° ENE
